Location: ??????
(56.0120°N, 39.1740°E)
Time: 08:39:06
(UTC+00:00)

TSX-5 - Pass Details

Date: 14 April 2026
Orbit: 387 x 998 km, 68.9° (Epoch: 9 May)

Event Time Altitude Azimuth Distance (km) Brightness Sun altitude
Rises 19:37:00 0° 225° (SW) 3,142 7.5 -20.7°
Reaches altitude 10° 19:39:34 10° 228° (SW) 2,115 6.6 -20.9°
Maximum altitude 19:44:16 67° 311° (NW) 643 4.2 -21.2°
Drops below altitude 10° 19:48:11 10° 35° (NE) 1,763 6.7 -21.4°
Sets 19:50:10 0° 39° (NE) 2,572 7.6 -21.5°
